OK1TBF-15 Weather Reports


time (UTC)temp
C
wind
direction
speed
KPH
gust
KPH
rain 1hr
cm
rain 24hr
cm
rain mn
cm
humidity
%
barometer
mb
20260905124237 18 0.0 0.0 0.00 0.00 0.00 58 1021.0
20260905121220 19 0.0 0.0 0.00 0.00 0.00 57 1021.2
20260905074109 15 0.0 0.0 0.00 0.00 0.00 83 1020.3
20260905072049 14 0.0 0.0 0.00 0.00 0.00 87 1020.4
20260905063041 13 0.0 0.0 0.00 0.00 0.00 90 1020.1
20260905062041 13 0.0 0.0 0.00 0.00 0.00 90 1019.8
20260905061041 13 0.0 0.0 0.00 0.00 0.00 89 1019.9
20260905054041 13 0.0 0.0 0.00 0.00 0.00 90 1019.3
20260905040913 15 0.0 0.0 0.00 0.00 0.00 89 1018.0
20260905035913 15 0.0 0.0 0.00 0.00 0.00 90 1018.5
20260905034913 15 0.0 0.0 0.00 0.00 0.00 91 1019.1
20260905033913 15 0.0 0.0 0.00 0.00 0.00 90 1018.5
20260905032913 15 0.0 0.0 0.00 0.00 0.00 90 1018.1
20260905031913 15 0.0 0.0 0.00 0.00 0.00 90 1017.7
20260905030914 15 0.0 0.0 0.00 0.00 0.00 90 1017.8
20260905025913 15 0.0 0.0 0.00 0.00 0.00 89 1017.7
20260905023910 15 0.0 0.0 0.00 0.00 0.00 89 1018.0
20260905022910 15 0.0 0.0 0.00 0.00 0.00 89 1017.9
20260905021911 15 0.0 0.0 0.00 0.00 0.00 88 1017.9
20260905020910 15 0.0 0.0 0.00 0.00 0.00 87 1017.5
20260905015910 15 0.0 0.0 0.00 0.00 0.00 85 1017.1
20260905014911 16 0.0 0.0 0.00 0.00 0.00 83 1017.3
20260905013910 16 0.0 0.0 0.00 0.00 0.00 80 1016.9
20260905012910 16 0.0 0.0 0.00 0.00 0.00 79 1017.1
20260905011911 16 0.0 0.0 0.00 0.00 0.00 77 1017.0
20260905010910 16 0.0 0.0 0.00 0.00 0.00 76 1016.9
20260905005910 16 0.0 0.0 0.00 0.00 0.00 77 1017.1
20260905004911 16 0.0 0.0 0.00 0.00 0.00 76 1016.9
20260905003910 17 0.0 0.0 0.00 0.00 0.00 75 1016.9
20260905002910 17 0.0 0.0 0.00 0.00 0.00 74 1016.7
20260905001910 17 0.0 0.0 0.00 0.00 0.00 74 1016.6
20260905000910 18 0.0 0.0 0.00 0.00 0.00 70 1016.4
20260904235910 18 0.0 0.0 0.00 0.00 0.00 67 1016.2
20260904234911 18 0.0 0.0 0.00 0.00 0.00 68 1015.2
20260904232910 18 0.0 0.0 0.00 0.00 0.00 70 1015.4
20260904225852 20 0.0 0.0 0.00 0.00 0.00 67 1014.2
20260904224850 20 0.0 0.0 0.00 0.00 0.00 65 1013.6
20260904185901 22 0.0 0.0 0.00 0.00 0.00 61 1013.6
20260904180844 23 0.0 0.0 0.00 0.00 0.00 61 1014.0
20260904175846 23 0.0 0.0 0.00 0.00 0.00 62 1013.9
20260904171853 23 0.0 0.0 0.00 0.00 0.00 60 1013.9